Weather Roundup
Issued by NWS

Home | Current Version | Previous Version | Text Only | Print | Product List | Glossary On
Versions: 1 2 3 4 5 6 7 8 9 10 11 12 13 14 15 16 17 18 19 20 21 22 23 24 25 26 27 28 29 30 31 32 33 34 35 36 37 38 39 40 41 42 43 44 45 46 47 48 49 50
000
NZUS93 KARX 120059
HRRWXR

CURRENT HOURLY OBSERVATIONS ACROSS
MUCH OF THE UPPER MISSISSIPPI VALLEY
NATIONAL WEATHER SERVICE LA CROSSE WI
700 PM CST MON DEC 11 2017


...SOUTHEAST MINNESOTA...


CITY           SKY/WX    TMP DP  RH WIND       PRES   REMARKS
ROCHESTER      CLOUDY    26  18  71 N23G33    30.02R WCI  11
ROCHESTER/MAYO CLOUDY    28  19  67 NW21G38   30.01R WCI  15
WINONA           N/A     32  21  64 NW22G33   30.00R WCI  19
AUSTIN         NOT AVBL
ALBERT LEA     NOT AVBL
DODGE CENTER   CLOUDY    27  19  74 NW24G33   30.04R WCI  12
PRESTON        CLOUDY    29  22  74 N17G26    29.99R WCI  17
OWATONNA       MOCLDY    27  19  74 NW23G29   30.08R WCI  12
FARIBAULT      PTCLDY    25  18  74 NW15G23   30.11R WCI  12
$$

...ELSEWHERE IN MINNESOTA...


CITY           SKY/WX    TMP DP  RH WIND       PRES   REMARKS
MINNEAPOLIS    MOCLDY    25  17  72 NW17      30.13R WCI  12
INTNL FALLS    CLEAR      9   1  70 NW8       30.17R WCI  -3
DULUTH         MOCLDY    14   7  73 N18G29    30.05R WCI  -3
RED WING       CLOUDY    27  12  54 N10G21    30.08R WCI  17
REDWOOD FALLS  CLOUDY    19  10  68 NW16G32   30.22R WCI   4
MANKATO        CLOUDY    26  19  74 NW23G29   30.14R WCI  11
WORTHINGTON    PTCLDY    20  15  81 NW24G35   30.21R WCI   3
FAIRMONT       CLOUDY    23  17  78 NW25G40   30.16R WCI   7
$$

...SOUTHWEST WISCONSIN...


CITY           SKY/WX    TMP DP  RH WIND       PRES   REMARKS
LA CROSSE      CLOUDY    33  21  61 N23G32    29.96R WCI  21
PRAIRIE DU CHI CLOUDY    34  26  74 NW14G21   29.92R WCI  24
BOSCOBEL       CLOUDY    34  25  69 N9G21     29.93R WCI  27
LONE ROCK      NOT AVBL
PLATTEVILLE    CLOUDY    32  30  92 N21G30    29.86R WCI  20
FORT MC COY    CLOUDY    31  22  70 NW16G24   29.93R WCI  20
CAMP DOUGLAS   CLOUDY    30  21  69 NW17G28   29.89R WCI  18
MAUSTON-NEW LI CLOUDY    31  24  75 NW14G21   29.87R WCI  21
VIROQUA        CLOUDY    30  26  83 N23       29.89R WCI  17
WIS DELLS      CLOUDY    30  23  77 N15G28    29.86R WCI  19
$$

...ELSEWHERE IN WISCONSIN...


CITY           SKY/WX    TMP DP  RH WIND       PRES   REMARKS
MILWAUKEE      CLOUDY    33  26  75 NW15G22   29.78R WCI  23
MADISON        CLOUDY    31  25  78 N15G28    29.84R WCI  20
GREEN BAY      CLOUDY    28  24  85 NW12      29.81R WCI  18
EAU CLAIRE     CLOUDY    23  11  60 NW21G36   30.03R WCI   8
BLACK RVR FLS  CLOUDY    31  19  61 NW10G18   29.93R WCI  22
MEDFORD        LGT SNOW  21  13  70 NW24      29.90R WCI   4
WAUSAU         CLOUDY    23  12  62 N17G33    29.87R WCI   9
WIS RAPIDS     CLOUDY    28  19  69 N17G30    29.89R WCI  16
MARSHFIELD     CLOUDY    24  15  68 N25G36    29.89R WCI   8
RICE LAKE      CLEAR     21  11  65 NW10G23   30.05R WCI  10
$$

...NORTHEAST IOWA...


CITY           SKY/WX    TMP DP  RH WIND       PRES   REMARKS
WATERLOO       CLOUDY    34  25  69 N22G31    29.99R WCI  22
DUBUQUE        CLOUDY    32  28  85 N23G29    29.88R WCI  19
DECORAH        CLOUDY    32  25  74 N21G28    29.94R WCI  20
MASON CITY     CLOUDY    30  22  72 N31G37    30.06R WCI  15
CHARLES CITY   CLOUDY    32  28  86 NW21G30   30.00R WCI  20
OELWEIN        CLOUDY    34  28  80 N26G33    29.97R WCI  21
$$

...ELSEWHERE IN IOWA...


CITY           SKY/WX    TMP DP  RH WIND       PRES   REMARKS
DES MOINES     CLOUDY    35  27  72 NW24G35   30.09R WCI  23
IOWA CITY      CLOUDY    38  31  76 N17G25    29.97R WCI  28
FORT DODGE     CLOUDY    27  19  72 NW14G24   30.14R WCI  16
MARSHALLTOWN   CLOUDY    35  28  75 N22       30.02R WCI  23
CEDAR RAPIDS   CLOUDY    35  30  82 N22G36    29.94R WCI  23
$$

...NORTHERN ILLINOIS...


CITY           SKY/WX    TMP DP  RH WIND       PRES   REMARKS
CHICAGO-OHARE  CLOUDY    33  30  88 NW12      29.76S WCI  24
CHICAGO-MIDWAY LGT SNOW  34  33  96 NW9       29.77R FOG     WCI  27
MOLINE         CLOUDY    37  34  89 NW15      29.89R WCI  28
ROCKFORD       CLOUDY    32  28  85 N12       29.83R WCI  23
PEORIA         CLOUDY    37  32  82 NW12G24   29.86R WCI  29
$$

NOTE: "FAIR" INDICATES FEW OR NO CLOUDS BELOW 12,000 FEET WITH NO
SIGNIFICANT WEATHER AND/OR OBSTRUCTIONS TO VISIBILITY. WIND
SPEEDS ARE IN MILES-PER-HOUR.




USA.gov is the U.S. government's official web portal to all federal, state and local government web resources and services.